Regional Weather Roundup
Issued by NWS

Home | Current Version | Previous Version | Graphics & Text | Print | Product List | Glossary Off
Versions: 1 2 3 4 5 6 7 8 9 10 11 12 13 14 15 16 17 18 19 20 21 22 23 24 25 26 27 28 29 30 31 32 33 34 35 36 37 38 39 40 41 42 43 44 45 46 47 48 49 50

000
ASUS43 KLSX 251059
RWRMO

WEATHER SUMMARY FOR MISSOURI
NATIONAL WEATHER SERVICE SPRINGFIELD MO
500 AM CST THU DEC 25 2014

NOTE: "FAIR" INDICATES FEW OR NO CLOUDS BELOW 12,000 FEET WITH NO
       SIGNIFICANT WEATHER AND/OR OBSTRUCTIONS TO VISIBILITY.
       CURRENT SKY AND/OR WEATHER CONDITIONS ARE NOT AVAILABLE FOR
       CHILLICOTHE AND FARMINGTON.

MOZ001>031-035>038-043-044-053-054-251200-
...NORTHERN AND WESTERN MISSOURI...

CITY           SKY/WX    TMP DP  RH WIND       PRES   REMARKS
KANSAS CTY INT PTCLDY    31  27  85 S12       29.77F WCI  22
KANSAS C DTWN  PTCLDY    33  28  81 S10       29.80F WCI  25
LEE`S SUMMIT   CLEAR     31  27  85 S10       29.81F WCI  22
ST JOSEPH      PTCLDY    31  26  82 S8        29.77S WCI  23
CHILLICOTHE      N/A     32  28  85 S8        29.82F WCI  25
KIRKSVILLE     CLEAR     30  29  96 S9        29.83R WCI  22

$$
MOZ066>068-077>081-088>096-101>105-251200-
...SOUTHWEST MISSOURI...

CITY           SKY/WX    TMP DP  RH WIND       PRES   REMARKS
SPRINGFIELD    CLEAR     31  27  85 S12       29.89S WCI  22
JOPLIN         CLEAR     35  28  75 S14       29.88F WCI  26

$$
MOZ032>034-039>042-045>050-055>058-069>072-251200-
...CENTRAL MISSOURI...

CITY           SKY/WX    TMP DP  RH WIND       PRES   REMARKS
COLUMBIA       CLEAR     30  28  92 S8        29.88S WCI  22
JEFFERSON CITY CLEAR     33  28  81 S6        29.92S WCI  28
ROLLA          CLEAR     30  27  88 S12       29.89S WCI  20
SEDALIA        CLEAR     31  28  89 S10       29.87S WCI  22
OSAGE BEACH    CLEAR     30  27  86 S6        29.90R WCI  24

$$
MOZ051-052-059>065-251200-
...EAST CENTRAL MISSOURI...

CITY           SKY/WX    TMP DP  RH WIND       PRES   REMARKS
ST LOUIS INTL  MOCLDY    38  29  70 SW7       29.94S
SPIRIT OF STL  PTCLDY    35  29  78 S5        29.94R
ST CHARLES     CLOUDY    37  30  75 SW7       29.94R

$$
MOZ072>076-082>087-097>100-106>115-251200-
...SOUTH CENTRAL AND SOUTHEAST MISSOURI...

CITY           SKY/WX    TMP DP  RH WIND       PRES   REMARKS
CAPE GIRARDEAU PTCLDY    35  32  88 S7        30.02R WCI  29
FARMINGTON     CLEAR     32  27  80 S5        29.98R WCI  27
POPLAR BLUFF   CLEAR     35  28  75 SW3       30.02R
WEST PLAINS    CLEAR     28  25  88 S6        29.97R WCI  22

$$



USA.gov is the U.S. government's official web portal to all federal, state and local government web resources and services.